Time,TemperatureF,DewpointF,PressureIn,WindDirection,WindDirectionDegrees,WindSpeedMPH,WindSpeedGustMPH,Humidity,HourlyPrecipIn,Conditions,Clouds,dailyrainin,SoftwareType,DateUTC
2013-05-23 00:00:00,72.6,27.9,29.42,South,186,1.0,1.0,19,0.00,,,0.00,Wunderground v.1.15,2013-05-23 06:00:00,
2013-05-23 00:10:00,72.1,27.5,29.42,South,186,1.0,1.0,19,0.00,,,0.00,Wunderground v.1.15,2013-05-23 06:10:00,
2013-05-23 00:20:00,72.2,27.6,29.42,South,179,1.0,5.0,19,0.00,,,0.00,Wunderground v.1.15,2013-05-23 06:20:00,
2013-05-23 00:25:00,72.6,27.9,29.42,SSE,163,2.0,5.0,19,0.00,,,0.00,Wunderground v.1.15,2013-05-23 06:25:00,
2013-05-23 00:35:00,72.4,27.8,29.42,ESE,123,1.0,2.0,19,0.00,,,0.00,Wunderground v.1.15,2013-05-23 06:35:00,
2013-05-23 00:55:00,70.1,27.1,29.42,SSW,197,0.0,0.0,20,0.00,,,0.00,Wunderground v.1.15,2013-05-23 06:55:00,
2013-05-23 01:05:00,71.1,28.0,29.43,ESE,102,2.0,7.0,20,0.00,,,0.00,Wunderground v.1.15,2013-05-23 07:05:00,
2013-05-23 01:20:00,71.8,28.5,29.43,SSW,193,4.0,4.0,20,0.00,,,0.00,Wunderground v.1.15,2013-05-23 07:20:00,
2013-05-23 01:25:00,71.6,28.4,29.43,South,188,2.0,4.0,20,0.00,,,0.00,Wunderground v.1.15,2013-05-23 07:25:00,
2013-05-23 01:30:00,71.2,28.0,29.43,South,188,1.0,1.0,20,0.00,,,0.00,Wunderground v.1.15,2013-05-23 07:30:00,
2013-05-23 01:40:00,70.7,26.4,29.43,ESE,117,0.0,3.0,19,0.00,,,0.00,Wunderground v.1.15,2013-05-23 07:40:00,
2013-05-23 01:50:00,71.0,27.9,29.43,ESE,103,1.0,1.0,20,0.00,,,0.00,Wunderground v.1.15,2013-05-23 07:50:00,
2013-05-23 02:00:00,70.1,25.9,29.43,South,178,1.0,1.0,19,0.00,,,0.00,Wunderground v.1.15,2013-05-23 08:00:00,
2013-05-23 02:05:00,70.1,27.1,29.44,South,178,1.0,1.0,20,0.00,,,0.00,Wunderground v.1.15,2013-05-23 08:05:00,
2013-05-23 02:20:00,68.9,26.1,29.44,South,182,1.0,1.0,20,0.00,,,0.00,Wunderground v.1.15,2013-05-23 08:20:00,
2013-05-23 02:25:00,69.1,26.3,29.44,South,182,0.0,1.0,20,0.00,,,0.00,Wunderground v.1.15,2013-05-23 08:25:00,
2013-05-23 02:30:00,68.7,26.0,29.44,South,182,0.0,0.0,20,0.00,,,0.00,Wunderground v.1.15,2013-05-23 08:30:00,
2013-05-23 02:40:00,68.0,26.6,29.44,South,182,0.0,0.0,21,0.00,,,0.00,Wunderground v.1.15,2013-05-23 08:40:00,
2013-05-23 02:50:00,68.6,25.9,29.44,South,190,2.0,2.0,20,0.00,,,0.00,Wunderground v.1.15,2013-05-23 08:50:00,
2013-05-23 03:00:00,68.4,25.7,29.45,South,191,1.0,2.0,20,0.00,,,0.00,Wunderground v.1.15,2013-05-23 09:00:00,
2013-05-23 03:05:00,68.2,25.6,29.45,South,191,1.0,2.0,20,0.00,,,0.00,Wunderground v.1.15,2013-05-23 09:05:00,
2013-05-23 03:10:00,68.0,25.4,29.45,SSW,192,1.0,1.0,20,0.00,,,0.00,Wunderground v.1.15,2013-05-23 09:10:00,
2013-05-23 03:20:00,67.2,25.9,29.45,SSE,167,1.0,3.0,21,0.00,,,0.00,Wunderground v.1.15,2013-05-23 09:20:00,
2013-05-23 03:30:00,67.4,24.9,29.46,South,170,1.0,2.0,20,0.00,,,0.00,Wunderground v.1.15,2013-05-23 09:30:00,
2013-05-23 03:40:00,68.2,25.6,29.46,South,179,4.0,4.0,20,0.00,,,0.00,Wunderground v.1.15,2013-05-23 09:40:00,
2013-05-23 03:45:00,68.4,25.7,29.46,SSW,198,4.0,4.0,20,0.00,,,0.00,Wunderground v.1.15,2013-05-23 09:45:00,
2013-05-23 04:00:00,67.5,25.0,29.46,South,190,3.0,5.0,20,0.00,,,0.00,Wunderground v.1.15,2013-05-23 10:00:00,
2013-05-23 04:05:00,67.2,24.7,29.46,SSE,150,3.0,5.0,20,0.00,,,0.00,Wunderground v.1.15,2013-05-23 10:05:00,
2013-05-23 04:10:00,67.1,24.6,29.46,SSE,165,4.0,4.0,20,0.00,,,0.00,Wunderground v.1.15,2013-05-23 10:10:00,
2013-05-23 04:20:00,67.6,25.1,29.47,SSW,194,4.0,4.0,20,0.00,,,0.00,Wunderground v.1.15,2013-05-23 10:20:00,
2013-05-23 04:30:00,68.0,25.4,29.47,South,178,3.0,3.0,20,0.00,,,0.00,Wunderground v.1.15,2013-05-23 10:30:00,
2013-05-23 04:35:00,67.9,25.3,29.47,South,171,3.0,3.0,20,0.00,,,0.00,Wunderground v.1.15,2013-05-23 10:35:00,
2013-05-23 04:45:00,67.8,25.2,29.47,SSE,168,1.0,2.0,20,0.00,,,0.00,Wunderground v.1.15,2013-05-23 10:45:00,
2013-05-23 04:55:00,67.7,25.1,29.48,SSW,198,1.0,3.0,20,0.00,,,0.00,Wunderground v.1.15,2013-05-23 10:55:00,
2013-05-23 05:05:00,67.1,25.8,29.48,South,185,1.0,1.0,21,0.00,,,0.00,Wunderground v.1.15,2013-05-23 11:05:00,
2013-05-23 05:20:00,65.8,25.9,29.48,SSE,154,0.0,1.0,22,0.00,,,0.00,Wunderground v.1.15,2013-05-23 11:20:00,
2013-05-23 05:30:00,65.0,25.2,29.48,SE,139,0.0,1.0,22,0.00,,,0.00,Wunderground v.1.15,2013-05-23 11:30:00,
2013-05-23 05:40:00,63.6,25.1,29.49,SE,140,0.0,2.0,23,0.00,,,0.00,Wunderground v.1.15,2013-05-23 11:40:00,
2013-05-23 05:50:00,63.1,25.7,29.49,South,174,0.0,0.0,24,0.00,,,0.00,Wunderground v.1.15,2013-05-23 11:50:00,
2013-05-23 06:00:00,62.1,25.8,29.49,South,174,0.0,1.0,25,0.00,,,0.00,Wunderground v.1.15,2013-05-23 12:00:00,
2013-05-23 06:05:00,62.2,25.9,29.49,ESE,115,1.0,1.0,25,0.00,,,0.00,Wunderground v.1.15,2013-05-23 12:05:00,
2013-05-23 06:15:00,64.2,26.6,29.49,South,178,1.0,6.0,24,0.00,,,0.00,Wunderground v.1.15,2013-05-23 12:15:00,
2013-05-23 06:35:00,66.3,27.4,29.51,SSE,162,5.0,5.0,23,0.00,,,0.00,Wunderground v.1.15,2013-05-23 12:35:00,
2013-05-23 06:50:00,67.6,28.5,29.51,ESE,108,2.0,5.0,23,0.00,,,0.00,Wunderground v.1.15,2013-05-23 12:50:00,
2013-05-23 07:05:00,68.8,29.5,29.51,ESE,109,1.0,1.0,23,0.00,,,0.00,Wunderground v.1.15,2013-05-23 13:05:00,
2013-05-23 07:10:00,69.0,30.7,29.51,ESE,109,0.0,1.0,24,0.00,,,0.00,Wunderground v.1.15,2013-05-23 13:10:00,
2013-05-23 07:20:00,68.8,31.5,29.51,East,101,3.0,3.0,25,0.00,,,0.00,Wunderground v.1.15,2013-05-23 13:20:00,
2013-05-23 07:30:00,68.5,32.2,29.51,East,101,1.0,2.0,26,0.00,,,0.00,Wunderground v.1.15,2013-05-23 13:30:00,
2013-05-23 07:35:00,68.6,32.3,29.50,East,101,1.0,1.0,26,0.00,,,0.00,Wunderground v.1.15,2013-05-23 13:35:00,
2013-05-23 07:45:00,68.9,32.6,29.50,East,101,1.0,1.0,26,0.00,,,0.00,Wunderground v.1.15,2013-05-23 13:45:00,
2013-05-23 07:50:00,69.0,33.6,29.51,ESE,115,1.0,1.0,27,0.00,,,0.00,Wunderground v.1.15,2013-05-23 13:50:00,
2013-05-23 08:00:00,70.0,35.4,29.50,ESE,119,0.0,2.0,28,0.00,,,0.00,Wunderground v.1.15,2013-05-23 14:00:00,
2013-05-23 08:10:00,71.1,34.5,29.51,East,98,2.0,3.0,26,0.00,,,0.00,Wunderground v.1.15,2013-05-23 14:10:00,
2013-05-23 08:20:00,72.1,36.3,29.50,East,89,3.0,3.0,27,0.00,,,0.00,Wunderground v.1.15,2013-05-23 14:20:00,
2013-05-23 08:30:00,73.7,35.7,29.51,ESE,102,2.0,2.0,25,0.00,,,0.00,Wunderground v.1.15,2013-05-23 14:30:00,
2013-05-23 08:40:00,75.5,34.0,29.50,East,100,3.0,4.0,22,0.00,,,0.00,Wunderground v.1.15,2013-05-23 14:40:00,
2013-05-23 08:50:00,76.7,31.3,29.51,ESE,115,3.0,3.0,19,0.00,,,0.00,Wunderground v.1.15,2013-05-23 14:50:00,
2013-05-23 09:00:00,77.0,31.6,29.51,SE,139,4.0,4.0,19,0.00,,,0.00,Wunderground v.1.15,2013-05-23 15:00:00,
2013-05-23 09:05:00,77.1,30.3,29.51,SSE,157,5.0,5.0,18,0.00,,,0.00,Wunderground v.1.15,2013-05-23 15:05:00,
2013-05-23 09:15:00,77.0,30.2,29.51,East,99,5.0,5.0,18,0.00,,,0.00,Wunderground v.1.15,2013-05-23 15:15:00,
2013-05-23 09:25:00,77.1,30.3,29.50,South,176,5.0,10.0,18,0.00,,,0.00,Wunderground v.1.15,2013-05-23 15:25:00,
2013-05-23 09:29:00,77.3,30.5,29.50,ESE,113,5.0,-999.0,18,0.00,,,0.00,Wunderground v.1.15,2013-05-23 15:29:00,
2013-05-23 09:34:00,77.6,29.3,29.50,South,180,3.0,-999.0,17,0.00,,,0.00,Wunderground v.1.15,2013-05-23 15:34:00,
2013-05-23 09:39:00,77.9,31.0,29.50,SSE,158,5.0,-999.0,18,0.00,,,0.00,Wunderground v.1.15,2013-05-23 15:39:00,
2013-05-23 09:44:00,77.9,29.5,29.50,SSW,203,3.0,-999.0,17,0.00,,,0.00,Wunderground v.1.15,2013-05-23 15:44:00,
2013-05-23 09:49:00,78.5,30.0,29.50,SE,135,2.0,-999.0,17,0.00,,,0.00,Wunderground v.1.15,2013-05-23 15:49:00,
2013-05-23 09:54:00,78.7,30.2,29.50,ESE,113,4.0,-999.0,17,0.00,,,0.00,Wunderground v.1.15,2013-05-23 15:54:00,
2013-05-23 09:59:00,78.9,28.9,29.50,SSW,203,9.0,-999.0,16,0.00,,,0.00,Wunderground v.1.15,2013-05-23 15:59:00,
2013-05-23 10:04:00,78.8,28.8,29.50,South,180,4.0,-999.0,16,0.00,,,0.00,Wunderground v.1.15,2013-05-23 16:04:00,
2013-05-23 10:09:00,79.2,30.6,29.50,ESE,113,2.0,-999.0,17,0.00,,,0.00,Wunderground v.1.15,2013-05-23 16:09:00,
2013-05-23 10:14:00,79.8,29.6,29.50,South,180,3.0,-999.0,16,0.00,,,0.00,Wunderground v.1.15,2013-05-23 16:14:00,
2013-05-23 10:19:00,80.1,29.8,29.50,SW,225,6.0,-999.0,16,0.00,,,0.00,Wunderground v.1.15,2013-05-23 16:19:00,
2013-05-23 10:24:00,80.3,28.4,29.50,SW,225,7.0,-999.0,15,0.00,,,0.00,Wunderground v.1.15,2013-05-23 16:24:00,
2013-05-23 10:29:00,80.0,28.2,29.50,South,180,6.0,-999.0,15,0.00,,,0.00,Wunderground v.1.15,2013-05-23 16:29:00,
2013-05-23 10:34:00,80.5,30.2,29.50,SSW,203,3.0,-999.0,16,0.00,,,0.00,Wunderground v.1.15,2013-05-23 16:34:00,
2013-05-23 10:39:00,80.9,28.9,29.50,WSW,248,10.0,-999.0,15,0.00,,,0.00,Wunderground v.1.15,2013-05-23 16:39:00,
2013-05-23 10:44:00,80.6,27.0,29.50,South,180,6.0,-999.0,14,0.00,,,0.00,Wunderground v.1.15,2013-05-23 16:44:00,
2013-05-23 10:49:00,80.5,26.9,29.49,South,180,4.0,-999.0,14,0.00,,,0.00,Wunderground v.1.15,2013-05-23 16:49:00,
2013-05-23 10:54:00,81.0,29.0,29.49,South,180,2.0,-999.0,15,0.00,,,0.00,Wunderground v.1.15,2013-05-23 16:54:00,
2013-05-23 10:59:00,80.9,28.9,29.49,SE,135,9.0,-999.0,15,0.00,,,0.00,Wunderground v.1.15,2013-05-23 16:59:00,
2013-05-23 11:04:00,81.0,27.3,29.49,SSW,203,7.0,-999.0,14,0.00,,,0.00,Wunderground v.1.15,2013-05-23 17:04:00,
2013-05-23 11:09:00,81.2,29.1,29.48,South,180,2.0,-999.0,15,0.00,,,0.00,Wunderground v.1.15,2013-05-23 17:09:00,
2013-05-23 11:14:00,81.9,28.0,29.48,South,180,8.0,-999.0,14,0.00,,,0.00,Wunderground v.1.15,2013-05-23 17:14:00,
2013-05-23 11:19:00,82.1,29.8,29.48,SSE,158,4.0,-999.0,15,0.00,,,0.00,Wunderground v.1.15,2013-05-23 17:19:00,
2013-05-23 11:24:00,82.1,28.2,29.47,SSE,158,6.0,-999.0,14,0.00,,,0.00,Wunderground v.1.15,2013-05-23 17:24:00,
2013-05-23 11:29:00,82.2,28.2,29.48,ESE,113,8.0,-999.0,14,0.00,,,0.00,Wunderground v.1.15,2013-05-23 17:29:00,
2013-05-23 11:34:00,82.3,28.3,29.47,ESE,113,7.0,-999.0,14,0.00,,,0.00,Wunderground v.1.15,2013-05-23 17:34:00,
2013-05-23 11:39:00,82.6,28.6,29.47,SSW,203,7.0,-999.0,14,0.00,,,0.00,Wunderground v.1.15,2013-05-23 17:39:00,
2013-05-23 11:44:00,82.8,30.4,29.47,ENE,68,2.0,-999.0,15,0.00,,,0.00,Wunderground v.1.15,2013-05-23 17:44:00,
2013-05-23 11:49:00,83.3,27.3,29.47,South,180,3.0,-999.0,13,0.00,,,0.00,Wunderground v.1.15,2013-05-23 17:49:00,
2013-05-23 11:54:00,83.4,29.2,29.47,ESE,113,4.0,-999.0,14,0.00,,,0.00,Wunderground v.1.15,2013-05-23 17:54:00,
2013-05-23 11:59:00,83.6,27.5,29.47,SE,135,6.0,-999.0,13,0.00,,,0.00,Wunderground v.1.15,2013-05-23 17:59:00,
2013-05-23 12:04:00,83.5,25.5,29.47,ESE,113,6.0,-999.0,12,0.00,,,0.00,Wunderground v.1.15,2013-05-23 18:04:00,
2013-05-23 12:09:00,83.6,25.6,29.47,SE,135,9.0,-999.0,12,0.00,,,0.00,Wunderground v.1.15,2013-05-23 18:09:00,
2013-05-23 12:14:00,83.8,27.7,29.46,SE,135,5.0,-999.0,13,0.00,,,0.00,Wunderground v.1.15,2013-05-23 18:14:00,
2013-05-23 12:19:00,84.0,25.9,29.46,SSE,158,7.0,-999.0,12,0.00,,,0.00,Wunderground v.1.15,2013-05-23 18:19:00,
2013-05-23 12:24:00,83.5,25.5,29.45,South,180,4.0,-999.0,12,0.00,,,0.00,Wunderground v.1.15,2013-05-23 18:24:00,
2013-05-23 12:29:00,83.7,25.7,29.46,East,90,5.0,-999.0,12,0.00,,,0.00,Wunderground v.1.15,2013-05-23 18:29:00,
2013-05-23 12:34:00,83.6,25.6,29.46,ESE,113,4.0,-999.0,12,0.00,,,0.00,Wunderground v.1.15,2013-05-23 18:34:00,
2013-05-23 12:39:00,83.8,25.7,29.46,SSW,203,8.0,-999.0,12,0.00,,,0.00,Wunderground v.1.15,2013-05-23 18:39:00,
2013-05-23 12:44:00,84.1,27.9,29.46,SSE,158,4.0,-999.0,13,0.00,,,0.00,Wunderground v.1.15,2013-05-23 18:44:00,
2013-05-23 12:49:00,84.5,26.3,29.45,WSW,248,1.0,-999.0,12,0.00,,,0.00,Wunderground v.1.15,2013-05-23 18:49:00,
2013-05-23 12:54:00,84.3,28.1,29.46,SSW,203,9.0,-999.0,13,0.00,,,0.00,Wunderground v.1.15,2013-05-23 18:54:00,
2013-05-23 12:59:00,84.2,28.0,29.45,SSW,203,3.0,-999.0,13,0.00,,,0.00,Wunderground v.1.15,2013-05-23 18:59:00,
2013-05-23 13:04:00,84.5,26.3,29.45,SE,135,6.0,-999.0,12,0.00,,,0.00,Wunderground v.1.15,2013-05-23 19:04:00,
2013-05-23 13:09:00,84.5,26.3,29.45,ESE,113,7.0,-999.0,12,0.00,,,0.00,Wunderground v.1.15,2013-05-23 19:09:00,
2013-05-23 13:14:00,84.6,24.3,29.45,South,180,6.0,-999.0,11,0.00,,,0.00,Wunderground v.1.15,2013-05-23 19:14:00,
2013-05-23 13:19:00,84.8,26.5,29.44,ESE,113,4.0,-999.0,12,0.00,,,0.00,Wunderground v.1.15,2013-05-23 19:19:00,
2013-05-23 13:24:00,85.2,28.8,29.45,ESE,113,4.0,-999.0,13,0.00,,,0.00,Wunderground v.1.15,2013-05-23 19:24:00,
2013-05-23 13:29:00,86.0,27.5,29.44,SW,225,6.0,-999.0,12,0.00,,,0.00,Wunderground v.1.15,2013-05-23 19:29:00,
2013-05-23 13:34:00,86.2,29.6,29.44,SSE,158,1.0,-999.0,13,0.00,,,0.00,Wunderground v.1.15,2013-05-23 19:34:00,
2013-05-23 13:39:00,86.3,25.6,29.44,SW,225,10.0,-999.0,11,0.00,,,0.00,Wunderground v.1.15,2013-05-23 19:39:00,
2013-05-23 13:44:00,86.2,25.5,29.44,East,90,6.0,-999.0,11,0.00,,,0.00,Wunderground v.1.15,2013-05-23 19:44:00,
2013-05-23 13:49:00,86.3,25.6,29.44,South,180,4.0,-999.0,11,0.00,,,0.00,Wunderground v.1.15,2013-05-23 19:49:00,
2013-05-23 13:54:00,86.2,25.5,29.43,South,180,12.0,-999.0,11,0.00,,,0.00,Wunderground v.1.15,2013-05-23 19:54:00,
2013-05-23 13:59:00,86.1,25.4,29.43,SSE,158,5.0,-999.0,11,0.00,,,0.00,Wunderground v.1.15,2013-05-23 19:59:00,
2013-05-23 14:04:00,87.1,28.3,29.43,South,180,3.0,-999.0,12,0.00,,,0.00,Wunderground v.1.15,2013-05-23 20:04:00,
2013-05-23 14:09:00,87.7,26.7,29.43,SE,135,5.0,-999.0,11,0.00,,,0.00,Wunderground v.1.15,2013-05-23 20:09:00,
2013-05-23 14:14:00,86.5,25.7,29.43,SW,225,15.0,-999.0,11,0.00,,,0.00,Wunderground v.1.15,2013-05-23 20:14:00,
2013-05-23 14:19:00,86.3,27.7,29.43,SW,225,4.0,-999.0,12,0.00,,,0.00,Wunderground v.1.15,2013-05-23 20:19:00,
2013-05-23 14:24:00,86.4,25.7,29.43,SSW,203,5.0,-999.0,11,0.00,,,0.00,Wunderground v.1.15,2013-05-23 20:24:00,
2013-05-23 14:29:00,86.8,23.7,29.42,South,180,8.0,-999.0,10,0.00,,,0.00,Wunderground v.1.15,2013-05-23 20:29:00,
2013-05-23 14:34:00,86.1,23.1,29.43,ESE,113,8.0,-999.0,10,0.00,,,0.00,Wunderground v.1.15,2013-05-23 20:34:00,
2013-05-23 14:39:00,86.1,23.1,29.42,South,180,12.0,-999.0,10,0.00,,,0.00,Wunderground v.1.15,2013-05-23 20:39:00,
2013-05-23 14:44:00,86.2,23.2,29.42,SSW,203,9.0,-999.0,10,0.00,,,0.00,Wunderground v.1.15,2013-05-23 20:44:00,
2013-05-23 14:49:00,86.3,23.3,29.42,SSW,203,14.0,-999.0,10,0.00,,,0.00,Wunderground v.1.15,2013-05-23 20:49:00,
2013-05-23 14:54:00,86.0,25.4,29.42,SW,225,8.0,-999.0,11,0.00,,,0.00,Wunderground v.1.15,2013-05-23 20:54:00,
2013-05-23 14:59:00,86.1,25.4,29.43,South,180,10.0,-999.0,11,0.00,,,0.00,Wunderground v.1.15,2013-05-23 20:59:00,
2013-05-23 15:04:00,86.4,25.7,29.42,SSE,158,4.0,-999.0,11,0.00,,,0.00,Wunderground v.1.15,2013-05-23 21:04:00,
2013-05-23 15:09:00,87.1,26.2,29.42,South,180,12.0,-999.0,11,0.00,,,0.00,Wunderground v.1.15,2013-05-23 21:09:00,
2013-05-23 15:14:00,86.9,26.0,29.42,SW,225,6.0,-999.0,11,0.00,,,0.00,Wunderground v.1.15,2013-05-23 21:14:00,
2013-05-23 15:19:00,86.8,26.0,29.42,SSW,203,7.0,-999.0,11,0.00,,,0.00,Wunderground v.1.15,2013-05-23 21:19:00,
2013-05-23 15:24:00,86.8,26.0,29.42,South,180,7.0,-999.0,11,0.00,,,0.00,Wunderground v.1.15,2013-05-23 21:24:00,
2013-05-23 15:29:00,86.9,28.2,29.42,South,180,5.0,-999.0,12,0.00,,,0.00,Wunderground v.1.15,2013-05-23 21:29:00,
2013-05-23 15:34:00,86.8,23.7,29.41,South,180,9.0,-999.0,10,0.00,,,0.00,Wunderground v.1.15,2013-05-23 21:34:00,
2013-05-23 15:39:00,87.1,26.2,29.41,SW,225,5.0,-999.0,11,0.00,,,0.00,Wunderground v.1.15,2013-05-23 21:39:00,
2013-05-23 15:44:00,87.7,26.7,29.41,SSW,203,2.0,-999.0,11,0.00,,,0.00,Wunderground v.1.15,2013-05-23 21:44:00,
2013-05-23 15:49:00,87.8,26.7,29.40,SSW,203,5.0,-999.0,11,0.00,,,0.00,Wunderground v.1.15,2013-05-23 21:49:00,
2013-05-23 15:54:00,87.4,26.4,29.41,SW,225,9.0,-999.0,11,0.00,,,0.00,Wunderground v.1.15,2013-05-23 21:54:00,
2013-05-23 15:59:00,87.4,26.4,29.40,SSE,158,2.0,-999.0,11,0.00,,,0.00,Wunderground v.1.15,2013-05-23 21:59:00,
2013-05-23 16:04:00,87.8,24.4,29.40,ESE,113,5.0,-999.0,10,0.00,,,0.00,Wunderground v.1.15,2013-05-23 22:04:00,
2013-05-23 16:09:00,87.8,24.4,29.39,ESE,113,8.0,-999.0,10,0.00,,,0.00,Wunderground v.1.15,2013-05-23 22:09:00,
2013-05-23 16:14:00,87.6,26.6,29.39,South,180,4.0,-999.0,11,0.00,,,0.00,Wunderground v.1.15,2013-05-23 22:14:00,
2013-05-23 16:19:00,87.7,26.7,29.38,South,180,3.0,-999.0,11,0.00,,,0.00,Wunderground v.1.15,2013-05-23 22:19:00,
2013-05-23 16:24:00,88.4,24.9,29.38,ESE,113,1.0,-999.0,10,0.00,,,0.00,Wunderground v.1.15,2013-05-23 22:24:00,
2013-05-23 16:29:00,89.4,28.0,29.38,SW,225,3.0,-999.0,11,0.00,,,0.00,Wunderground v.1.15,2013-05-23 22:29:00,
2013-05-23 16:34:00,89.6,28.1,29.37,SE,135,4.0,-999.0,11,0.00,,,0.00,Wunderground v.1.15,2013-05-23 22:34:00,
2013-05-23 16:39:00,89.6,25.8,29.38,South,180,4.0,-999.0,10,0.00,,,0.00,Wunderground v.1.15,2013-05-23 22:39:00,
2013-05-23 16:44:00,89.1,27.7,29.38,SSE,158,6.0,-999.0,11,0.00,,,0.00,Wunderground v.1.15,2013-05-23 22:44:00,
2013-05-23 16:49:00,88.9,27.6,29.38,SSW,203,4.0,-999.0,11,0.00,,,0.00,Wunderground v.1.15,2013-05-23 22:49:00,
2013-05-23 16:54:00,88.1,24.7,29.38,South,180,10.0,-999.0,10,0.00,,,0.00,Wunderground v.1.15,2013-05-23 22:54:00,
2013-05-23 16:59:00,87.7,26.7,29.38,South,180,6.0,-999.0,11,0.00,,,0.00,Wunderground v.1.15,2013-05-23 22:59:00,
2013-05-23 17:04:00,87.9,24.5,29.37,SW,225,4.0,-999.0,10,0.00,,,0.00,Wunderground v.1.15,2013-05-23 23:04:00,
2013-05-23 17:09:00,88.1,22.1,29.37,South,180,11.0,-999.0,9,0.00,,,0.00,Wunderground v.1.15,2013-05-23 23:09:00,
2013-05-23 17:14:00,88.1,22.1,29.38,SSW,203,6.0,-999.0,9,0.00,,,0.00,Wunderground v.1.15,2013-05-23 23:14:00,
2013-05-23 17:19:00,87.9,24.5,29.37,East,90,2.0,-999.0,10,0.00,,,0.00,Wunderground v.1.15,2013-05-23 23:19:00,
2013-05-23 17:24:00,88.1,22.1,29.36,South,180,9.0,-999.0,9,0.00,,,0.00,Wunderground v.1.15,2013-05-23 23:24:00,
2013-05-23 17:29:00,88.2,24.7,29.36,South,180,6.0,-999.0,10,0.00,,,0.00,Wunderground v.1.15,2013-05-23 23:29:00,
2013-05-23 17:34:00,88.0,22.1,29.36,South,180,4.0,-999.0,9,0.00,,,0.00,Wunderground v.1.15,2013-05-23 23:34:00,
2013-05-23 17:39:00,88.1,22.1,29.36,SSE,158,1.0,-999.0,9,0.00,,,0.00,Wunderground v.1.15,2013-05-23 23:39:00,
2013-05-23 17:44:00,88.2,22.2,29.36,SSE,158,3.0,-999.0,9,0.00,,,0.00,Wunderground v.1.15,2013-05-23 23:44:00,
2013-05-23 17:49:00,88.3,22.3,29.36,SSW,203,3.0,-999.0,9,0.00,,,0.00,Wunderground v.1.15,2013-05-23 23:49:00,
2013-05-23 17:54:00,88.6,22.5,29.36,SSW,203,6.0,-999.0,9,0.00,,,0.00,Wunderground v.1.15,2013-05-23 23:54:00,
2013-05-23 17:59:00,88.2,24.7,29.35,NNE,23,2.0,-999.0,10,0.00,,,0.00,Wunderground v.1.15,2013-05-23 23:59:00,
2013-05-23 18:04:00,87.9,22.0,29.36,SE,135,5.0,-999.0,9,0.00,,,0.00,Wunderground v.1.15,2013-05-24 00:04:00,
2013-05-23 18:09:00,87.4,21.6,29.35,South,180,3.0,-999.0,9,0.00,,,0.00,Wunderground v.1.15,2013-05-24 00:09:00,
2013-05-23 18:14:00,87.3,24.1,29.35,ESE,113,3.0,-999.0,10,0.00,,,0.00,Wunderground v.1.15,2013-05-24 00:14:00,
2013-05-23 18:19:00,87.5,24.2,29.35,South,180,3.0,-999.0,10,0.00,,,0.00,Wunderground v.1.15,2013-05-24 00:19:00,
2013-05-23 18:29:00,87.6,24.3,29.35,East,90,4.0,-999.0,10,0.00,,,0.00,Wunderground v.1.15,2013-05-24 00:29:00,
2013-05-23 18:35:00,86.5,23.4,29.35,ESE,104,4.0,10.0,10,0.00,,,0.00,Wunderground v.1.15,2013-05-24 00:35:00,
2013-05-23 18:41:00,86.2,23.2,29.35,SSW,194,7.0,7.0,10,0.00,,,0.00,Wunderground v.1.15,2013-05-24 00:41:00,
2013-05-23 18:46:00,86.0,20.6,29.35,SSE,161,2.0,14.0,9,0.00,,,0.00,Wunderground v.1.15,2013-05-24 00:46:00,
2013-05-23 18:51:00,85.8,22.9,29.35,South,184,0.0,5.0,10,0.00,,,0.00,Wunderground v.1.15,2013-05-24 00:51:00,
2013-05-23 18:57:00,85.4,22.6,29.36,SSE,159,5.0,22.0,10,0.00,,,0.00,Wunderground v.1.15,2013-05-24 00:57:00,
2013-05-23 19:03:00,85.0,22.3,29.35,South,175,4.0,14.0,10,0.00,,,0.00,Wunderground v.1.15,2013-05-24 01:03:00,
2013-05-23 19:08:00,84.8,22.2,29.35,South,186,4.0,14.0,10,0.00,,,0.00,Wunderground v.1.15,2013-05-24 01:08:00,
2013-05-23 19:15:00,84.6,24.3,29.35,SSW,211,1.0,11.0,11,0.00,,,0.00,Wunderground v.1.15,2013-05-24 01:15:00,
2013-05-23 19:20:00,84.2,21.7,29.35,ESE,109,2.0,2.0,10,0.00,,,0.00,Wunderground v.1.15,2013-05-24 01:20:00,
2013-05-23 19:25:00,83.9,21.5,29.36,ESE,103,5.0,10.0,10,0.00,,,0.00,Wunderground v.1.15,2013-05-24 01:25:00,
2013-05-23 19:30:00,83.6,21.2,29.36,ESE,106,0.0,2.0,10,0.00,,,0.00,Wunderground v.1.15,2013-05-24 01:30:00,
2013-05-23 19:35:00,83.5,21.2,29.36,SSW,195,10.0,10.0,10,0.00,,,0.00,Wunderground v.1.15,2013-05-24 01:35:00,
2013-05-23 19:40:00,83.5,21.2,29.36,South,172,0.0,3.0,10,0.00,,,0.00,Wunderground v.1.15,2013-05-24 01:40:00,
2013-05-23 19:45:00,83.3,21.0,29.36,South,186,1.0,7.0,10,0.00,,,0.00,Wunderground v.1.15,2013-05-24 01:45:00,
2013-05-23 19:50:00,83.0,20.8,29.36,SSW,200,0.0,2.0,10,0.00,,,0.00,Wunderground v.1.15,2013-05-24 01:50:00,
2013-05-23 19:56:00,82.5,20.4,29.37,ESE,121,1.0,7.0,10,0.00,,,0.00,Wunderground v.1.15,2013-05-24 01:56:00,
2013-05-23 20:01:00,82.1,20.1,29.36,SW,228,3.0,3.0,10,0.00,,,0.00,Wunderground v.1.15,2013-05-24 02:01:00,
2013-05-23 20:06:00,82.2,20.2,29.37,SSW,193,0.0,8.0,10,0.00,,,0.00,Wunderground v.1.15,2013-05-24 02:06:00,
2013-05-23 20:12:00,82.0,22.3,29.38,SSW,193,1.0,3.0,11,0.00,,,0.00,Wunderground v.1.15,2013-05-24 02:12:00,
2013-05-23 20:15:00,81.6,22.0,29.37,SSW,203,0.0,-999.0,11,0.00,,,0.00,Wunderground v.1.15,2013-05-24 02:15:00,
2013-05-23 20:20:00,80.9,21.4,29.38,South,180,3.0,-999.0,11,0.00,,,0.00,Wunderground v.1.15,2013-05-24 02:20:00,
2013-05-23 20:25:00,80.7,19.0,29.37,ESE,113,2.0,-999.0,10,0.00,,,0.00,Wunderground v.1.15,2013-05-24 02:25:00,
2013-05-23 20:30:00,80.7,21.3,29.38,ESE,113,0.0,-999.0,11,0.00,,,0.00,Wunderground v.1.15,2013-05-24 02:30:00,
2013-05-23 20:35:00,80.7,19.0,29.38,ESE,113,3.0,-999.0,10,0.00,,,0.00,Wunderground v.1.15,2013-05-24 02:35:00,
2013-05-23 20:40:00,80.5,18.9,29.38,SE,135,2.0,-999.0,10,0.00,,,0.00,Wunderground v.1.15,2013-05-24 02:40:00,
2013-05-23 20:45:00,79.9,18.4,29.38,ESE,113,2.0,-999.0,10,0.00,,,0.00,Wunderground v.1.15,2013-05-24 02:45:00,
2013-05-23 20:50:00,79.6,18.2,29.39,SSW,203,2.0,-999.0,10,0.00,,,0.00,Wunderground v.1.15,2013-05-24 02:50:00,
2013-05-23 20:55:00,79.5,18.1,29.39,ESE,113,0.0,-999.0,10,0.00,,,0.00,Wunderground v.1.15,2013-05-24 02:55:00,
2013-05-23 21:00:00,79.1,20.0,29.39,ESE,113,0.0,-999.0,11,0.00,,,0.00,Wunderground v.1.15,2013-05-24 03:00:00,
2013-05-23 21:05:00,78.7,19.7,29.39,ESE,113,1.0,-999.0,11,0.00,,,0.00,Wunderground v.1.15,2013-05-24 03:05:00,
2013-05-23 21:10:00,78.7,19.7,29.40,ESE,113,0.0,-999.0,11,0.00,,,0.00,Wunderground v.1.15,2013-05-24 03:10:00,
2013-05-23 21:15:00,78.5,19.6,29.40,ESE,113,0.0,-999.0,11,0.00,,,0.00,Wunderground v.1.15,2013-05-24 03:15:00,
2013-05-23 21:20:00,78.3,19.4,29.40,N/A,-737280,0.0,-999.0,11,0.00,,,0.00,Wunderground v.1.15,2013-05-24 03:20:00,
2013-05-23 21:25:00,77.9,19.1,29.40,SE,135,1.0,-999.0,11,0.00,,,0.00,Wunderground v.1.15,2013-05-24 03:25:00,
2013-05-23 21:30:00,77.6,18.9,29.41,SE,135,0.0,-999.0,11,0.00,,,0.00,Wunderground v.1.15,2013-05-24 03:30:00,
2013-05-23 21:35:00,77.3,18.7,29.41,ESE,113,1.0,-999.0,11,0.00,,,0.00,Wunderground v.1.15,2013-05-24 03:35:00,
2013-05-23 21:40:00,76.9,18.3,29.41,South,180,2.0,-999.0,11,0.00,,,0.00,Wunderground v.1.15,2013-05-24 03:40:00,
2013-05-23 21:45:00,76.7,18.2,29.42,ESE,113,4.0,-999.0,11,0.00,,,0.00,Wunderground v.1.15,2013-05-24 03:45:00,
2013-05-23 21:50:00,76.6,18.1,29.42,ESE,113,2.0,-999.0,11,0.00,,,0.00,Wunderground v.1.15,2013-05-24 03:50:00,
2013-05-23 21:55:00,76.5,18.0,29.43,East,90,1.0,-999.0,11,0.00,,,0.00,Wunderground v.1.15,2013-05-24 03:55:00,
2013-05-23 22:00:00,76.7,18.2,29.43,East,90,0.0,-999.0,11,0.00,,,0.00,Wunderground v.1.15,2013-05-24 04:00:00,
2013-05-23 22:05:00,76.5,20.1,29.43,South,180,0.0,-999.0,12,0.00,,,0.00,Wunderground v.1.15,2013-05-24 04:05:00,
2013-05-23 22:10:00,76.2,19.8,29.43,South,180,0.0,-999.0,12,0.00,,,0.00,Wunderground v.1.15,2013-05-24 04:10:00,
2013-05-23 22:15:00,76.0,19.7,29.43,ESE,113,0.0,-999.0,12,0.00,,,0.00,Wunderground v.1.15,2013-05-24 04:15:00,
2013-05-23 22:20:00,76.1,19.8,29.44,ESE,113,1.0,-999.0,12,0.00,,,0.00,Wunderground v.1.15,2013-05-24 04:20:00,
2013-05-23 22:25:00,76.0,17.6,29.44,ESE,113,0.0,-999.0,11,0.00,,,0.00,Wunderground v.1.15,2013-05-24 04:25:00,
2013-05-23 22:30:00,75.6,19.4,29.44,N/A,-737280,0.0,-999.0,12,0.00,,,0.00,Wunderground v.1.15,2013-05-24 04:30:00,
2013-05-23 22:35:00,75.3,19.1,29.44,SSE,158,0.0,-999.0,12,0.00,,,0.00,Wunderground v.1.15,2013-05-24 04:35:00,
2013-05-23 22:40:00,74.8,20.6,29.44,SSE,158,1.0,-999.0,13,0.00,,,0.00,Wunderground v.1.15,2013-05-24 04:40:00,
2013-05-23 22:45:00,74.2,18.3,29.44,SSE,158,0.0,-999.0,12,0.00,,,0.00,Wunderground v.1.15,2013-05-24 04:45:00,
2013-05-23 22:50:00,74.0,20.0,29.44,SSE,158,0.0,-999.0,13,0.00,,,0.00,Wunderground v.1.15,2013-05-24 04:50:00,
2013-05-23 22:55:00,73.4,19.5,29.44,SSE,158,0.0,-999.0,13,0.00,,,0.00,Wunderground v.1.15,2013-05-24 04:55:00,
2013-05-23 23:00:00,72.6,18.9,29.44,SSE,158,0.0,-999.0,13,0.00,,,0.00,Wunderground v.1.15,2013-05-24 05:00:00,
2013-05-23 23:05:00,72.2,20.3,29.44,N/A,-737280,0.0,-999.0,14,0.00,,,0.00,Wunderground v.1.15,2013-05-24 05:05:00,
2013-05-23 23:10:00,71.3,19.6,29.44,SSE,158,0.0,-999.0,14,0.00,,,0.00,Wunderground v.1.15,2013-05-24 05:10:00,
2013-05-23 23:15:00,70.3,18.8,29.45,N/A,-737280,0.0,-999.0,14,0.00,,,0.00,Wunderground v.1.15,2013-05-24 05:15:00,
2013-05-23 23:20:00,69.4,19.7,29.45,SSE,158,1.0,-999.0,15,0.00,,,0.00,Wunderground v.1.15,2013-05-24 05:20:00,
2013-05-23 23:25:00,68.8,19.2,29.45,N/A,-737280,0.0,-999.0,15,0.00,,,0.00,Wunderground v.1.15,2013-05-24 05:25:00,
2013-05-23 23:30:00,68.3,20.3,29.45,SSE,158,1.0,-999.0,16,0.00,,,0.00,Wunderground v.1.15,2013-05-24 05:30:00,
2013-05-23 23:35:00,67.9,20.0,29.45,N/A,-737280,0.0,-999.0,16,0.00,,,0.00,Wunderground v.1.15,2013-05-24 05:35:00,
2013-05-23 23:40:00,67.7,19.8,29.45,SSE,158,0.0,-999.0,16,0.00,,,0.00,Wunderground v.1.15,2013-05-24 05:40:00,
2013-05-23 23:45:00,67.8,19.9,29.45,N/A,-737280,0.0,-999.0,16,0.00,,,0.00,Wunderground v.1.15,2013-05-24 05:45:00,
2013-05-23 23:50:00,67.7,19.8,29.46,SSE,158,1.0,-999.0,16,0.00,,,0.00,Wunderground v.1.15,2013-05-24 05:50:00,
2013-05-23 23:55:00,67.6,19.8,29.46,SSE,158,1.0,-999.0,16,0.00,,,0.00,Wunderground v.1.15,2013-05-24 05:55:00,